Location: Newark
(21.1200°N, 73.4000°E)
Time: 06:43:00
(UTC+00:00)

Explorer 11/Cluster Stage 4 - Pass Details

Date: 26 January 2020
Orbit: 467 x 1259 km, 28.8° (Epoch: 17 February)

Event Time Altitude Azimuth Distance (km) Brightness Sun altitude
Rises 15:33:11 0° 278° (W) 3,578 10.9 -37.2°
Reaches altitude 10° 15:36:36 10° 264° (W) 2,469 9.8 -38.0°
Enters shadow 15:39:42 20° 234° (SW) 1,721 8.7 -38.7°
Maximum altitude 15:40:57 22° 215° (SW) 1,596 - -39.0°
Drops below altitude 10° 15:44:40 10° 165° (SSE) 2,065 - -39.8°
Sets 15:47:15 0° 149° (SSE) 2,847 - -40.4°
